Location: La Chapelle-Iger
(48.6538°N, 2.9933°E)
Time: 15:38:39
(UTC+00:00)

Daily predictions for brighter satellites

Satellite Brightness Start Highest point End
(mag) Time Altitude Azimuth Time Altitude Azimuth Time Altitude Azimuth
Cosmos 2173 Rocket 4.4 19:38:58 10° SSE 19:44:39 42° E 19:50:25 10° NNE
Cosmos 1605 Rocket 4.3 19:39:03 10° SSW 19:45:12 75° W 19:51:31 10° N
Cosmos 1980 Rocket 3.0 19:45:46 10° NNW 19:51:06 38° NE 19:56:23 10° ESE
SL-08 R/B 3.9 19:47:30 10° NNE 19:52:02 37° E 19:56:27 10° SSE
ARIANE 6 FM1 Upper Stage 4.5 19:49:14 10° WNW 19:52:28 24° WSW 19:55:42 10° S
Okean 1 Rocket 3.5 19:49:15 10° SSE 19:53:20 41° E 19:57:29 10° NNE
SL-24 R/B 4.3 19:49:23 10° NNE 19:54:01 81° WNW 19:58:21 10° SSW
Cosmos 2084 3.7 19:52:46 10° SW 19:56:55 73° NW 20:01:04 10° NE
Meteor 2-3 Rocket 3.8 19:51:26 10° N 19:57:02 66° ENE 20:02:38 10° SSE
CZ-4 R/B 1.8 19:55:55 10° S 19:59:28 54° W 20:03:03 10° NNW
CZ-4B R/B 4.5 19:58:58 10° E 20:01:01 15° ENE 20:03:04 10° NNE
Cosmos 1850 Rocket 4.4 19:56:15 10° NNW 20:01:16 49° ENE 20:06:16 10° SE
Cosmos 1782 4.3 19:59:13 10° SE 20:01:22 16° E 20:03:31 10° NE
ASTEX 1 3.7 20:00:49 10° S 20:05:44 72° W 20:10:43 10° N
SPOT 5 4.2 20:01:57 10° SSW 20:05:51 34° W 20:09:49 10° NNW
Cosmos 2056 Rocket 3.9 20:03:43 10° SSW 20:09:07 74° WNW 20:14:31 10° NNE
CZ-4B R/B 3.3 20:03:46 10° SSE 20:09:26 89° WSW 20:15:07 10° NNW
Cosmos 1833 Rocket 2.7 20:04:29 10° SSW 20:10:06 88° ESE 20:15:46 10° NNE
Cosmos 1110 Rocket 4.2 20:05:28 10° S 20:10:34 52° ESE 20:15:43 10° NNE
Cosmos 1802 Rocket 4.3 20:05:13 10° SSE 20:11:05 47° E 20:16:56 10° NNE
Cosmos 1624 Rocket 4.3 20:06:55 10° SSW 20:12:04 72° WNW 20:17:16 10° NNE
Terra 2.0 20:08:57 10° S 20:13:38 76° WSW 20:18:22 10° NNW
Gbstr 26 Del rocket 3.3 20:09:20 10° WNW 20:14:40 79° NNE 20:18:53 11° ESE
Cosmos 2360 Rocket 4.5 20:13:32 10° N 20:16:05 13° NNE 20:18:38 10° ENE
Sich 1 Rocket 3.6 20:11:51 10° S 20:16:08 61° E 20:20:27 10° NNE
SJ 16-02 3.9 20:17:30 10° WNW 20:20:14 17° W 20:22:56 10° SW
YAOGAN 11 4.4 20:17:28 10° NNE 20:21:43 46° E 20:25:58 10° S
CZ-2C R/B 4.3 20:23:39 11° E 20:24:47 13° ENE 20:26:07 10° NE
USA 229 DEB 4.4 20:18:43 10° NW 20:26:08 64° SW 20:34:05 11° SSE
USA 229 4.3 20:18:45 10° NW 20:26:13 65° SW 20:34:07 11° SSE
Cosmos 1743 2.6 20:23:49 10° N 20:26:43 41° ENE 20:28:34 18° SE
SKYMED 3 4.5 20:26:36 10° N 20:30:32 77° WNW 20:34:28 10° SSW
Meteor 1-27 4.5 20:25:07 10° SSE 20:30:35 50° E 20:35:59 10° NNE
Cosmos 44 Rocket 3.6 20:25:51 10° SSW 20:30:42 49° ESE 20:35:42 10° NE
ISS -2.8 20:28:50 10° SSW 20:31:42 26° SE 20:34:33 10° E
Cosmos 1459 Rocket 4.0 20:25:47 10° S 20:32:02 86° E 20:38:15 10° N
Cosmos 2100 Rocket 4.1 20:29:23 10° S 20:35:36 83° W 20:41:57 10° N
Ariane Rocket 3.7 20:32:21 16° SE 20:35:59 39° ENE 20:40:41 10° N
ADEOS 4.2 20:33:43 10° S 20:38:48 55° W 20:43:57 10° NNW
ATLAS 2AS CENTAUR R/B 3.4 20:32:37 10° WSW 20:39:27 58° NW 20:46:11 10° NE
Spot 2 Rocket 3.6 20:36:59 11° S 20:41:52 78° WSW 20:46:55 10° NNW
BREEZE-M DEB (TANK) 3.6 20:39:09 10° W 20:42:06 50° SSW 20:47:10 17° SE
Cosmos 2369 4.3 20:36:44 10° NNW 20:42:17 48° NE 20:46:24 18° ESE
SL-4 R/B 3.0 20:39:07 10° W 20:42:32 31° SW 20:44:44 18° SSE
Cosmos 2322 Rocket 4.2 20:40:21 10° N 20:44:10 18° NE 20:47:59 10° E
MOS 1-B 4.4 20:39:56 11° SSE 20:45:29 81° WSW 20:51:20 10° NNW
Cosmos 2082 Rocket 2.7 20:41:03 10° S 20:46:16 38° ESE 20:51:31 10° NE
Okean 2 Rocket 3.9 20:42:04 10° SSW 20:46:26 53° WNW 20:50:51 10° N
USA 305 3.3 20:44:22 10° WNW 20:48:22 50° NNE 20:51:08 16° E
Cosmos 2151 4.4 20:47:48 10° NNE 20:51:10 23° ENE 20:52:53 18° ESE
Cosmos 1607 4.1 20:51:16 10° SSW 20:57:09 50° ESE 21:03:10 10° NE
Cosmos 2233 Rocket 4.0 20:51:19 11° S 20:57:10 65° E 21:03:17 10° NNE
Cosmos 1626 Rocket 4.3 20:53:58 10° N 20:58:02 38° ENE 21:00:05 24° SE
Cosmos 2228 2.9 20:55:36 19° S 20:58:27 61° E 21:02:31 10° NNE
SL-08 R/B 4.5 20:53:18 10° S 20:59:32 77° E 21:05:55 10° NNE
USA 186 2.5 20:58:27 19° SSW 20:59:56 38° W 21:02:30 10° NNW
Timation 1 Rocket 4.5 20:54:35 10° SSW 21:00:36 79° WNW 21:06:39 10° NNE
Okean O Rocket 2.3 20:57:28 13° S 21:01:12 50° W 21:05:24 10° NNW
Tsikada Rocket 3.9 20:58:08 10° N 21:04:21 80° E 21:08:51 20° SSE
Cosmos 1697 Rocket 4.1 21:01:55 10° NW 21:06:51 32° WSW 21:11:45 10° SSW
CZ-4C R/B 1.8 21:03:46 10° SW 21:07:57 82° NW 21:13:25 10° NE
Cosmos 1725 Rocket 4.2 21:01:59 10° SSW 21:08:16 76° W 21:14:33 10° N
Cosmos 1452 Rocket 3.6 21:03:39 10° SSW 21:08:52 81° WNW 21:14:08 10° NNE
COSMOS 2406 4.1 21:07:29 23° SE 21:09:28 29° ESE 21:14:20 10° NE
SL-16 R/B 3.2 21:06:12 10° NNW 21:11:27 37° NE 21:14:58 19° ESE
Okean-O 3.7 21:10:27 12° SSW 21:14:09 39° W 21:18:16 10° NNW
ATLAS 3B R/B 3.6 21:08:10 10° NW 21:15:27 46° WSW 21:20:47 17° S
Cosmos 1892 Rocket 4.5 21:16:12 10° NNW 21:20:18 43° W 21:23:28 16° SSW
CZ-4B R/B 3.3 21:19:08 26° S 21:21:49 81° WSW 21:26:38 10° NNW
Cosmos 2333 Rocket 3.1 21:19:02 10° NNW 21:24:24 40° NE 21:27:39 22° ESE
Cosmos 1455 Rocket 4.0 21:20:36 10° SSW 21:24:51 46° WNW 21:29:07 10° N
Cosmos 1302 Rocket 3.9 21:21:23 10° SSW 21:26:33 89° ESE 21:31:47 10° NNE
Cosmos 2098 Rocket 4.4 21:25:32 26° ESE 21:26:49 30° E 21:30:54 10° NNE
Cosmos 2016 Rocket 4.5 21:21:12 10° SSW 21:27:25 61° WNW 21:33:35 10° N
CZ-4B R/B 3.4 21:33:11 27° SSW 21:34:27 40° W 21:37:40 10° NNW
Cosmos 2061 Rocket 4.0 21:29:50 15° SSW 21:35:07 81° W 21:41:26 10° N
Cosmos 1980 Rocket 3.0 21:29:48 10° NW 21:35:09 42° WSW 21:38:33 21° SSW
Cosmos 1782 3.8 21:32:58 14° SW 21:35:40 37° WNW 21:38:59 10° N
Cosmos 1544 Rocket 3.5 21:35:32 37° SSE 21:37:08 68° E 21:41:28 10° NNE
SPOT 3 Rocket 4.1 21:34:29 21° S 21:37:43 52° W 21:42:45 10° NNW
Cosmos 724 4.4 21:31:49 10° SW 21:37:51 78° NW 21:43:49 10° NE
NOSS 3-3 (A) 3.6 21:34:26 15° SSW 21:38:43 62° SE 21:44:45 10° NE
Cosmos 1933 3.2 21:44:19 53° SE 21:44:50 59° E 21:48:35 10° NNE
Cosmos 2084 Rocket 3.4 21:45:09 10° NW 21:49:20 70° SW 21:50:19 49° SSE
Helios 1B rocket 3.2 21:51:51 29° ENE 21:52:08 29° ENE 21:55:13 10° N
Cosmos 1758 Rocket 3.7 21:47:49 10° NNW 21:52:11 68° W 21:53:42 39° SSW
CZ-2C R/B 3.3 21:55:17 31° W 21:55:18 31° W 21:57:51 10° NNW
Cosmos 1464 Rocket 4.2 21:53:23 34° SSE 21:55:46 54° E 22:01:45 10° NNE
Cosmos 1513 Rocket 4.4 21:56:21 30° S 21:59:38 81° E 22:05:50 10° N
Gbstr 26 Del rocket 3.9 21:56:27 10° WNW 22:00:39 32° SW 22:00:52 32° SW
Cosmos 2360 Rocket 2.9 21:56:11 10° NNW 22:01:38 44° NE 22:04:14 27° ESE
Meteor 2-10 4.4 21:59:15 10° N 22:04:56 62° ENE 22:06:57 39° SE
NOSS 3-3 (C) 3.6 22:02:52 20° SSW 22:06:36 79° SE 22:12:53 10° NE
ALOS 2 4.2 22:06:32 21° E 22:07:42 24° ENE 22:11:11 10° N
ISS -3.7 22:04:55 10° WSW 22:08:14 77° NNW 22:08:14 77° NNW
ARIANE 5 R/B 3.9 22:07:11 25° E 22:08:17 28° ENE 22:12:05 10° N
Cosmos 1825 Rocket 3.8 22:04:17 10° N 22:08:32 53° ENE 22:09:11 48° ESE
Geosat 3.9 22:04:26 10° NNE 22:09:29 86° WNW 22:12:24 26° SSW
Cosmos 1072 Rocket 4.4 22:08:17 36° S 22:10:59 75° E 22:17:18 10° NNE
USA 305 3.1 22:09:56 10° WNW 22:13:09 42° WSW 22:13:09 42° WSW
Ariane Rocket 4.3 22:12:25 21° SW 22:14:56 32° W 22:19:27 10° NNW
BREEZE-M R/B 4.5 22:06:35 10° W 22:15:43 77° N 22:21:22 10° E
Cosmos 1602 Rocket 3.7 22:13:35 10° NNW 22:17:50 64° W 22:18:42 50° SSW
DEBRIS 4.2 22:15:00 10° W 22:18:55 84° N 22:33:44 10° E
Cosmos 2219 Rocket 3.1 22:13:50 10° NNW 22:19:09 39° NE 22:21:47 25° ESE
NOSS 3-4 (A) 3.9 22:15:08 10° NW 22:21:44 69° NE 22:26:01 28° ESE
Cosmos 1437 Rocket 3.1 22:21:47 45° WSW 22:22:14 49° WNW 22:25:43 10° N
NOSS 3-4 (C) 4.0 22:15:45 10° NW 22:22:22 69° NE 22:26:40 28° ESE
Cosmos 1461 3.9 22:26:32 29° ENE 22:26:32 29° ENE 22:28:39 10° NE
Cosmos 2151 4.0 22:24:16 10° NNW 22:28:01 34° W 22:28:56 30° WSW
Cosmos 1428 Rocket 4.4 22:22:50 10° N 22:29:08 87° E 22:31:20 43° S
Cosmos 2322 Rocket 2.2 22:23:34 10° NNW 22:29:14 72° ENE 22:31:03 44° SE
Cosmos 2034 Rocket 4.1 22:27:37 42° SSE 22:29:45 65° E 22:36:04 10° NNE
Cosmos 2082 Rocket 3.4 22:24:54 10° WSW 22:30:18 42° NW 22:35:44 10° NNE
Cosmos 220 Rocket 3.7 22:32:36 79° ESE 22:32:36 79° ESE 22:36:41 10° NNE
Meteor 1-5 Rocket 4.4 22:32:37 10° NNW 22:38:14 69° W 22:40:03 44° SSW
Cosmos 1536 3.9 22:35:03 10° N 22:38:06 30° ENE 22:38:06 30° ENE
USA 234 3.2 22:33:12 10° ENE 22:39:41 60° SE 22:42:49 31° SSW
Cosmos 1763 Rocket 3.7 22:45:39 48° ESE 22:46:05 49° ESE 22:51:11 10° NNE
Okean 1-7 Rocket 3.9 22:42:13 10° NNW 22:46:33 54° W 22:47:08 49° SW
Cosmos-2242 3.4 22:47:28 49° E 22:47:28 49° E 22:51:12 10° NNE
Cosmos 1503 Rocket 3.9 22:42:47 10° NNW 22:48:01 83° ENE 22:49:02 59° SE
Helios 1A 3.4 22:44:22 10° N 22:48:11 51° WNW 22:48:44 46° W
Cosmos 1777 Rocket 3.9 22:43:02 10° NNW 22:48:17 78° WSW 22:49:16 59° S
Cosmos 2278 3.8 22:42:40 10° NNW 22:48:19 64° WSW 22:49:38 49° SSW
CZ-2C R/B 4.4 22:46:16 10° NE 22:51:08 28° E 22:51:56 27° ESE
Cosmos 990 Rocket 4.1 22:46:13 10° NNW 22:51:22 64° ENE 22:52:30 50° ESE
Cosmos 1805 4.4 22:48:35 10° NNW 22:51:00 28° WNW 22:51:00 28° WNW
Cosmos 1606 Rocket 3.9 22:52:45 51° WSW 22:53:24 58° WNW 22:57:42 10° N
COSMOS 2406 3.8 22:49:26 19° SW 22:53:27 54° NW 22:59:06 10° NNE
USA 290 4.0 22:56:48 26° NE 22:56:48 26° NE 22:58:21 10° NNE
ARGOS Delta rocket 4.3 22:50:44 10° NNE 22:55:36 49° E 22:56:07 47° ESE
SL-16 R/B 2.7 22:50:16 10° NW 22:55:38 44° WSW 22:56:47 39° SW
CZ-4C R/B 4.3 22:53:06 10° WNW 22:57:07 25° NNW 23:02:03 10° NE
Cosmos 1354 Rocket 4.0 22:52:58 10° NNW 22:58:15 72° ENE 22:59:19 55° SE
Cosmos 1634 Rocket 4.1 22:57:50 47° SE 22:59:24 61° E 23:05:29 10° NNE
Cosmos 1486 Rocket 4.2 22:54:53 10° NNW 23:00:00 55° WSW 23:00:50 49° SW
Nadezhda 4 Rocket 4.5 22:54:52 10° NNW 23:00:45 50° W 23:02:51 36° SW
Cosmos 1766 3.9 22:59:01 10° N 23:01:17 41° N 23:01:17 41° N
Cosmos 2279 Rocket 4.5 23:01:48 40° SE 23:03:18 47° E 23:09:16 10° NNE
Cosmos 2098 Rocket 4.4 23:02:10 28° WSW 23:04:03 38° WNW 23:08:24 10° N
Cosmos 1470 4.2 23:01:59 10° NNE 23:04:12 25° NE 23:04:12 25° NE
SeaSat 1 3.7 23:03:53 23° E 23:06:06 35° NE 23:10:33 10° NNW
Cosmos 1726 Rocket 3.7 23:06:21 55° W 23:06:31 56° WNW 23:10:31 10° N
Cosmos 2333 Rocket 2.9 23:03:24 10° NW 23:08:42 40° WSW 23:09:39 37° SW
Cosmos 2221 3.9 23:09:57 26° E 23:09:57 26° E 23:13:05 10° NNE
Meteor 2-2 Rocket 4.2 23:10:21 57° SSE 23:11:30 77° E 23:17:14 10° NNE
Cosmos 1076 Rocket 4.0 23:07:26 10° NNW 23:11:32 47° W 23:11:38 47° W
BREEZE-M DEB (TANK) 3.5 23:09:10 10° W 23:17:21 82° S 23:22:19 10° E
CZ-2C R/B 3.4 23:16:22 34° ESE 23:17:58 43° ENE 23:22:54 10° N
Cosmos 1833 4.1 23:17:41 59° S 23:18:44 76° ESE 23:24:23 10° NNE
Spot 4 3.9 23:23:21 58° WSW 23:23:43 60° W 23:28:27 10° NNW
Helios 1B rocket 4.1 23:25:48 20° WNW 23:25:48 20° WNW 23:27:53 10° NW
Cosmos 2026 Rocket 4.3 23:19:11 10° NNW 23:25:25 58° W 23:27:17 43° SW
SAR-Lupe-2 4.5 23:26:37 42° NNW 23:26:37 42° NNW 23:28:58 10° NNW
Cosmos 1975 3.6 23:25:13 10° N 23:28:17 41° NE 23:28:17 41° NE
Aureole 1 Rocket 3.7 23:25:04 10° NNW 23:30:24 83° ENE 23:32:03 51° SSE
Cosmos 2266 Rocket 4.5 23:26:39 10° N 23:32:29 49° ENE 23:34:28 36° ESE
Cosmos 2322 4.3 23:27:24 10° NNW 23:33:00 52° NE 23:35:17 33° ESE
Cosmos 1812 Rocket 4.5 23:34:01 37° E 23:34:01 37° E 23:37:58 10° NNE
Cosmos 2297 Rocket 4.0 23:33:58 17° ESE 23:34:27 17° E 23:37:53 10° ENE
Cosmos 44 3.8 23:31:00 10° NW 23:36:24 65° NE 23:38:07 41° ESE
Cosmos 1271 Rocket 3.6 23:38:07 39° NE 23:38:07 39° NE 23:40:27 10° NNE
Cosmos 372 Rocket 3.9 23:37:37 10° NNW 23:42:46 78° ENE 23:43:34 62° SE
RESURS DK-1 3.5 23:39:51 10° NNW 23:43:32 35° NE 23:44:13 33° ENE
ALOS 2 3.2 23:43:55 43° W 23:43:55 43° W 23:48:01 10° NNW
Cosmos 1937 Rocket 4.2 23:39:02 10° NNW 23:44:00 46° ENE 23:45:41 34° ESE
ARIANE 5 R/B 3.6 23:44:33 35° W 23:44:33 35° W 23:48:34 10° NNW
Cosmos 2360 Rocket 3.0 23:40:24 10° NW 23:45:30 35° WSW 23:45:58 35° WSW
Meteor 1-11 Rocket 4.1 23:42:18 10° N 23:47:58 58° ENE 23:49:31 43° SE
Cosmos 2058 Rocket 3.7 23:48:53 43° W 23:49:10 44° WNW 23:53:22 10° N
GP-B 3.1 23:44:51 10° N 23:49:13 65° E 23:49:14 65° E
Cosmos 468 Rocket 3.9 23:51:08 66° SSW 23:51:53 87° ESE 23:57:12 10° NNE
